START_TIME,STEP,MOV.,M29,t_acc.,H22,t_acc.,H26,t_acc.,H30,t_acc.
1979-07-06 06:00:32.590 ,1,1,0.,24.0,0.,24.0,0.,24.0,0.,24.0
1979-07-06 06:00:56.590 ,2,1,0.,24.0,0.,24.0,0.,24.0,0.,24.0
1979-07-06 06:01:20.590 ,6,1,0.,24.0,0.,24.0,0.,24.0,0.,24.0
1979-07-06 06:01:44.590 ,5,1,0.,24.0,0.,24.0,0.,24.0,0.,24.0
1979-07-06 06:02:08.590 ,1,1,0.,24.0,0.,24.0,0.,24.0,0.,24.0
1979-07-06 06:02:32.590 ,2,1,0.,24.0,0.,24.0,0.,24.0,0.,24.0
1979-07-06 06:02:56.590 ,6,1,0.,24.0,0.,24.0,0.,24.0,0.,24.0
1979-07-06 06:03:20.590 ,5,1,0.,24.0,0.,24.0,0.,24.0,0.,24.0
1979-07-06 06:03:44.590 ,1,1,0.,24.0,0.,24.0,0.,24.0,0.,24.0
1979-07-06 06:04:08.590 ,2,1,0.,24.0,0.,24.0,0.,24.0,0.,24.0
1979-07-06 06:04:32.590 ,6,1,0.,24.0,0.,24.0,0.,24.0,0.,24.0
1979-07-06 06:04:56.590 ,5,1,0.,24.0,0.,24.0,0.,24.0,0.,24.0
1979-07-06 06:05:20.590 ,1,1,0.,24.0,0.,24.0,0.,24.0,0.,24.0
1979-07-06 06:05:44.590 ,0,0,0.,24.0,0.,24.0,0.,24.0,0.,24.0
1979-07-06 06:06:08.590 ,0,0,0.,24.0,0.,24.0,0.,24.0,0.,24.0
1979-07-06 06:06:36.790 ,0,0,0.,24.0,0.,24.0,0.,24.0,0.,24.0
1979-07-06 06:06:56.590 ,0,0,0.,24.0,0.,24.0,0.,24.0,0.,24.0
1979-07-06 06:07:20.590 ,4,1,0.,24.0,0.,24.0,0.,24.0,0.,24.0
1979-07-06 06:07:44.590 ,4,0,0.,24.0,0.,24.0,0.,24.0,0.,24.0
1979-07-06 06:08:08.590 ,3,1,0.,24.0,0.,24.0,0.,24.0,0.,24.0
1979-07-06 06:08:32.590 ,3,0,0.,24.0,0.,24.0,0.,24.0,0.,24.0
1979-07-06 06:08:56.590 ,2,1,0.,24.0,0.,24.0,0.,24.0,0.,24.0
1979-07-06 06:09:20.590 ,2,0,0.,24.0,0.,24.0,0.,24.0,0.,24.0
1979-07-06 06:09:44.590 ,1,1,0.,24.0,0.,24.0,0.,24.0,0.,24.0
1979-07-06 06:10:08.590 ,1,0,0.,24.0,0.,24.0,0.,24.0,0.,24.0
1979-07-06 06:10:32.590 ,0,1,0.,24.0,0.,24.0,0.,24.0,0.,24.0
1979-07-06 06:10:56.590 ,0,0,0.,24.0,0.,24.0,0.,24.0,0.,24.0
1979-07-06 06:11:20.590 ,0,1,0.,24.0,0.,24.0,0.,24.0,0.,24.0
1979-07-06 06:11:44.590 ,0,0,0.,24.0,0.,24.0,0.,24.0,0.,24.0
1979-07-06 06:12:08.590 ,1,1,0.,24.0,0.,24.0,0.,24.0,0.,24.0
1979-07-06 06:12:32.590 ,1,0,0.,24.0,0.,24.0,0.,24.0,0.,24.0
1979-07-06 06:12:56.590 ,2,1,0.,24.0,0.,24.0,0.,24.0,0.,24.0
1979-07-06 06:13:20.590 ,2,0,0.,24.0,0.,24.0,0.,24.0,0.,24.0
1979-07-06 06:13:44.590 ,3,1,0.,24.0,0.,24.0,0.,24.0,0.,24.0
1979-07-06 06:14:08.590 ,3,0,0.,24.0,0.,24.0,0.,24.0,0.,24.0
1979-07-06 06:14:32.590 ,4,1,0.,24.0,0.,24.0,0.,24.0,0.,24.0
1979-07-06 06:14:56.590 ,4,0,0.,24.0,0.,24.0,0.,24.0,0.,24.0
1979-07-06 06:15:20.590 ,5,1,0.,24.0,0.,24.0,0.,24.0,0.,24.0
1979-07-06 06:15:44.590 ,5,0,0.,24.0,0.,24.0,0.,24.0,0.,24.0
1979-07-06 06:16:08.590 ,6,1,0.,24.0,0.,24.0,0.,24.0,0.,24.0
1979-07-06 06:16:32.590 ,6,0,0.,24.0,0.,24.0,0.,24.0,0.,24.0
1979-07-06 06:16:56.590 ,7,1,0.,24.0,0.,24.0,0.,24.0,0.,24.0
1979-07-06 06:17:20.590 ,7,0,0.,24.0,0.,24.0,0.,24.0,0.,24.0
1979-07-06 06:17:44.590 ,7,1,0.,24.0,0.,24.0,0.,24.0,0.,24.0
1979-07-06 06:18:08.590 ,7,0,0.,24.0,0.,24.0,0.,24.0,0.,24.0
1979-07-06 06:18:32.590 ,6,1,0.,24.0,0.,24.0,0.,24.0,0.,24.0
1979-07-06 06:18:56.590 ,6,0,0.,24.0,0.,24.0,0.,24.0,0.,24.0
1979-07-06 06:19:20.590 ,5,1,0.,24.0,0.,24.0,0.,24.0,0.,24.0
1979-07-06 06:19:44.590 ,5,0,0.,24.0,0.,24.0,0.,24.0,0.,24.0
1979-07-06 06:20:08.590 ,4,1,0.,24.0,0.,24.0,0.,24.0,0.,24.0
1979-07-06 06:20:32.590 ,4,0,0.,24.0,0.,24.0,0.,24.0,0.,24.0
1979-07-06 06:20:56.590 ,3,1,0.,24.0,0.,24.0,0.,24.0,0.,24.0
1979-07-06 06:21:20.590 ,3,0,0.,24.0,0.,24.0,0.,24.0,0.,24.0
1979-07-06 06:21:44.590 ,2,1,0.,24.0,0.,24.0,0.,24.0,0.,24.0
1979-07-06 06:22:08.590 ,2,0,0.,24.0,0.,24.0,0.,24.0,0.,24.0
1979-07-06 06:22:32.590 ,1,1,0.,24.0,0.,24.0,0.,24.0,0.,24.0
1979-07-06 06:22:56.590 ,1,0,0.,24.0,0.,24.0,0.,24.0,0.,24.0
1979-07-06 06:23:20.590 ,0,1,0.,24.0,0.,24.0,0.,24.0,0.,24.0
1979-07-06 06:23:44.590 ,0,0,0.,24.0,0.,24.0,0.,24.0,0.,24.0
1979-07-06 06:24:08.590 ,0,1,0.,24.0,0.,24.0,0.,24.0,0.,24.0
1979-07-06 06:24:32.590 ,0,0,0.,24.0,0.,24.0,0.,24.0,0.,24.0
1979-07-06 06:24:56.590 ,1,1,0.,24.0,0.,24.0,0.,24.0,0.,24.0
1979-07-06 06:25:20.590 ,1,0,0.,24.0,0.,24.0,0.,24.0,0.,24.0
1979-07-06 06:25:44.590 ,2,1,0.,24.0,0.,24.0,0.,24.0,0.,24.0
1979-07-06 06:26:08.590 ,2,0,0.,24.0,0.,24.0,0.,24.0,0.,24.0
1979-07-06 06:26:32.590 ,3,1,0.,24.0,0.,24.0,0.,24.0,0.,24.0
1979-07-06 06:26:56.590 ,3,0,0.,24.0,0.,24.0,0.,24.0,0.,24.0
1979-07-06 06:27:20.590 ,4,1,0.,24.0,0.,24.0,0.,24.0,0.,24.0
1979-07-06 06:27:44.590 ,4,0,0.,24.0,0.,24.0,0.,24.0,0.,24.0
1979-07-06 06:28:08.590 ,5,1,0.,24.0,0.,24.0,0.,24.0,0.,24.0
1979-07-06 06:28:32.590 ,5,0,0.,24.0,0.,24.0,0.,24.0,0.,24.0
1979-07-06 06:28:56.590 ,6,1,0.,24.0,0.,24.0,0.,24.0,0.,24.0
1979-07-06 06:29:20.590 ,6,0,0.,24.0,0.,24.0,0.,24.0,0.,24.0
1979-07-06 06:29:44.590 ,7,1,0.,24.0,0.,24.0,0.,24.0,0.,24.0
1979-07-06 06:30:08.590 ,7,0,0.,24.0,0.,24.0,0.,24.0,0.,24.0
1979-07-06 06:30:32.590 ,7,1,0.,24.0,0.,24.0,0.,24.0,0.,24.0
1979-07-06 06:30:56.590 ,7,0,0.,24.0,0.,24.0,0.,24.0,0.,24.0
1979-07-06 06:31:20.590 ,6,1,0.,24.0,0.,24.0,0.,24.0,0.,24.0
1979-07-06 06:31:44.590 ,6,0,0.,24.0,0.,24.0,0.,24.0,0.,24.0
1979-07-06 06:32:08.590 ,5,1,0.,24.0,0.,24.0,0.,24.0,0.,24.0
1979-07-06 06:32:32.590 ,5,0,0.,24.0,0.,24.0,0.,24.0,0.,24.0
1979-07-06 06:32:56.590 ,4,1,0.,24.0,0.,24.0,0.,24.0,0.,24.0
1979-07-06 06:33:20.590 ,4,0,0.,24.0,0.,24.0,0.,24.0,0.,24.0
1979-07-06 06:33:44.590 ,3,1,0.,24.0,0.,24.0,0.,24.0,0.,24.0
1979-07-06 06:34:08.590 ,3,0,0.,24.0,0.,24.0,0.,24.0,0.,24.0
1979-07-06 06:34:32.590 ,2,1,0.,24.0,0.,24.0,0.,24.0,0.,24.0
1979-07-06 06:34:56.590 ,2,0,0.,24.0,0.,24.0,0.,24.0,0.,24.0
1979-07-06 06:35:20.590 ,1,1,0.,24.0,0.,24.0,0.,24.0,0.,24.0
1979-07-06 06:35:44.590 ,1,0,0.,24.0,0.,24.0,0.,24.0,0.,24.0
1979-07-06 06:36:08.590 ,0,1,0.,24.0,0.,24.0,0.,24.0,0.,24.0
1979-07-06 06:36:32.590 ,0,0,0.,24.0,0.,24.0,0.,24.0,0.,24.0
1979-07-06 06:36:56.590 ,0,1,0.,24.0,0.,24.0,0.,24.0,0.,24.0
1979-07-06 06:37:20.590 ,0,0,0.,24.0,0.,24.0,0.,24.0,0.,24.0
1979-07-06 06:37:44.590 ,1,1,0.,24.0,0.,24.0,0.,24.0,0.,24.0
1979-07-06 06:38:08.590 ,1,0,0.,24.0,0.,24.0,0.,24.0,0.,24.0
1979-07-06 06:38:32.590 ,2,1,0.,24.0,0.,24.0,0.,24.0,0.,24.0
1979-07-06 06:38:56.590 ,2,0,0.,24.0,0.,24.0,0.,24.0,0.,24.0
1979-07-06 06:39:20.590 ,3,1,0.,24.0,0.,24.0,0.,24.0,0.,24.0
1979-07-06 06:39:44.590 ,3,0,0.,24.0,0.,24.0,0.,24.0,0.,24.0
1979-07-06 06:40:08.590 ,4,1,0.,24.0,0.,24.0,0.,24.0,0.,24.0
1979-07-06 06:40:32.590 ,4,0,0.,24.0,0.,24.0,0.,24.0,0.,24.0
1979-07-06 06:40:56.590 ,5,1,0.,24.0,0.,24.0,0.,24.0,0.,24.0
1979-07-06 06:41:20.590 ,5,0,0.,24.0,0.,24.0,0.,24.0,0.,24.0
1979-07-06 06:41:44.590 ,6,1,0.,24.0,0.,24.0,0.,24.0,0.,24.0
1979-07-06 06:42:08.590 ,6,0,0.,24.0,0.,24.0,0.,24.0,0.,24.0
1979-07-06 06:42:32.590 ,7,0,0.,24.0,0.,24.0,0.,24.0,0.,24.0
1979-07-06 06:42:56.590 ,7,0,0.,24.0,0.,24.0,0.,24.0,0.,24.0
1979-07-06 06:43:20.590 ,5,1,0.,24.0,0.,24.0,0.,24.0,0.,24.0
1979-07-06 06:43:44.590 ,1,1,0.,24.0,0.,24.0,0.,24.0,0.,24.0
1979-07-06 06:44:32.590 ,6,1,0.,24.0,0.,24.0,0.,24.0,0.,24.0
1979-07-06 06:44:56.590 ,5,1,0.,24.0,0.,24.0,0.,24.0,0.,24.0
1979-07-06 06:45:20.590 ,1,1,0.,24.0,0.,24.0,0.,24.0,0.,24.0
1979-07-06 06:45:44.590 ,2,1,0.,24.0,0.,24.0,0.,24.0,0.,24.0
1979-07-06 06:46:08.590 ,6,1,0.,24.0,0.,24.0,0.,24.0,0.,24.0
1979-07-06 06:46:32.590 ,5,1,0.,24.0,0.,24.0,0.,24.0,0.,24.0
1979-07-06 06:46:56.590 ,1,1,0.,24.0,0.,24.0,0.,24.0,0.,24.0
1979-07-06 06:47:20.590 ,2,1,0.,24.0,0.,24.0,0.,24.0,0.,24.0
1979-07-06 06:47:44.590 ,6,1,0.,24.0,0.,24.0,0.,24.0,0.,24.0
1979-07-06 06:48:08.590 ,5,1,0.,24.0,0.,24.0,0.,24.0,0.,24.0
1979-07-06 06:48:32.590 ,1,1,0.,24.0,0.,24.0,0.,24.0,0.,24.0
1979-07-06 06:48:56.590 ,2,1,0.,24.0,0.,24.0,0.,24.0,0.,24.0
1979-07-06 06:49:20.590 ,6,1,0.,24.0,0.,24.0,0.,24.0,0.,24.0
1979-07-06 06:49:44.590 ,5,1,0.,24.0,0.,24.0,0.,24.0,0.,24.0
1979-07-06 06:50:08.590 ,1,1,0.,24.0,0.,24.0,0.,24.0,0.,24.0
1979-07-06 06:50:32.590 ,2,1,0.,24.0,0.,24.0,0.,24.0,0.,24.0
1979-07-06 06:50:56.590 ,6,1,0.,24.0,0.,24.0,0.,24.0,0.,24.0
1979-07-06 06:51:20.590 ,5,1,0.,24.0,0.,24.0,0.,24.0,0.,24.0
1979-07-06 06:51:44.590 ,1,1,0.,24.0,0.,24.0,0.,24.0,0.,24.0
1979-07-06 06:52:08.590 ,2,1,0.,24.0,0.,24.0,0.,24.0,0.,24.0
1979-07-06 06:52:32.590 ,6,1,0.,24.0,0.,24.0,0.,24.0,0.,24.0
1979-07-06 06:52:56.590 ,5,1,0.,24.0,0.,24.0,0.,24.0,0.,24.0
1979-07-06 06:53:20.590 ,1,1,0.,24.0,0.,24.0,0.,24.0,0.,24.0
1979-07-06 06:53:44.590 ,0,0,0.,24.0,0.,24.0,0.,24.0,0.,24.0
1979-07-06 06:54:08.590 ,0,0,0.,24.0,0.,24.0,0.,24.0,0.,24.0
1979-07-06 06:54:32.590 ,5,1,0.,24.0,0.,24.0,0.,24.0,0.,24.0
1979-07-06 06:54:56.590 ,5,0,0.,24.0,0.,24.0,0.,24.0,0.,24.0
1979-07-06 06:55:20.590 ,4,1,0.,24.0,0.,24.0,0.,24.0,0.,24.0
1979-07-06 06:55:44.590 ,4,0,0.,24.0,0.,24.0,0.,24.0,0.,24.0
1979-07-06 06:56:08.590 ,3,1,0.,24.0,0.,24.0,0.,24.0,0.,24.0
1979-07-06 06:56:32.590 ,3,0,0.,24.0,0.,24.0,0.,24.0,0.,24.0
1979-07-06 06:56:56.590 ,2,1,0.,24.0,0.,24.0,0.,24.0,0.,24.0
1979-07-06 06:57:20.590 ,2,0,0.,24.0,0.,24.0,0.,24.0,0.,24.0
1979-07-06 06:57:44.590 ,1,1,0.,24.0,0.,24.0,0.,24.0,0.,24.0
1979-07-06 06:58:08.590 ,1,0,0.,24.0,0.,24.0,0.,24.0,0.,24.0
1979-07-06 06:58:32.590 ,0,1,0.,24.0,0.,24.0,0.,24.0,0.,24.0
1979-07-06 06:58:56.590 ,0,0,0.,24.0,0.,24.0,0.,24.0,0.,24.0
1979-07-06 06:59:20.590 ,0,1,0.,24.0,0.,24.0,0.,24.0,0.,24.0
1979-07-06 06:59:44.590 ,0,0,0.,24.0,0.,24.0,0.,24.0,0.,24.0
1979-07-06 07:00:08.590 ,1,1,0.,24.0,0.,24.0,0.,24.0,0.,24.0
1979-07-06 07:00:32.590 ,1,0,0.,24.0,0.,24.0,0.,24.0,0.,24.0
1979-07-06 07:00:56.590 ,2,1,0.,24.0,0.,24.0,0.,24.0,0.,24.0
1979-07-06 07:01:20.590 ,2,0,0.,24.0,0.,24.0,0.,24.0,0.,24.0
1979-07-06 07:01:44.590 ,3,1,0.,24.0,0.,24.0,0.,24.0,0.,24.0
1979-07-06 07:02:08.590 ,3,0,0.,24.0,0.,24.0,0.,24.0,0.,24.0
1979-07-06 07:02:32.590 ,4,1,0.,24.0,0.,24.0,0.,24.0,0.,24.0
1979-07-06 07:02:56.590 ,4,0,0.,24.0,0.,24.0,0.,24.0,0.,24.0
1979-07-06 07:03:20.590 ,5,1,0.,24.0,0.,24.0,0.,24.0,0.,24.0
1979-07-06 07:03:44.590 ,5,0,0.,24.0,0.,24.0,0.,24.0,0.,24.0
1979-07-06 07:04:08.590 ,6,1,0.,24.0,0.,24.0,0.,24.0,0.,24.0
1979-07-06 07:04:32.590 ,6,0,0.,24.0,0.,24.0,0.,24.0,0.,24.0
1979-07-06 07:04:56.590 ,7,1,0.,24.0,0.,24.0,0.,24.0,0.,24.0
1979-07-06 07:05:20.590 ,7,0,0.,24.0,0.,24.0,0.,24.0,0.,24.0
1979-07-06 07:05:44.590 ,7,1,0.,24.0,0.,24.0,0.,24.0,0.,24.0
1979-07-06 07:06:08.590 ,7,0,0.,24.0,0.,24.0,0.,24.0,0.,24.0
1979-07-06 07:06:32.590 ,6,1,0.,24.0,0.,24.0,0.,24.0,0.,24.0
1979-07-06 07:06:56.590 ,6,0,0.,24.0,0.,24.0,0.,24.0,0.,24.0
1979-07-06 07:07:20.590 ,5,1,0.,24.0,0.,24.0,0.,24.0,0.,24.0
1979-07-06 07:07:44.590 ,5,0,0.,24.0,0.,24.0,0.,24.0,0.,24.0
1979-07-06 07:08:08.590 ,4,1,0.,24.0,0.,24.0,0.,24.0,0.,24.0
1979-07-06 07:08:32.590 ,4,0,0.,24.0,0.,24.0,0.,24.0,0.,24.0
1979-07-06 07:08:56.590 ,3,1,0.,24.0,0.,24.0,0.,24.0,0.,24.0
1979-07-06 07:09:20.590 ,3,0,0.,24.0,0.,24.0,0.,24.0,0.,24.0
1979-07-06 07:09:44.590 ,2,1,0.,24.0,0.,24.0,0.,24.0,0.,24.0
1979-07-06 07:10:08.590 ,2,0,0.,24.0,0.,24.0,0.,24.0,0.,24.0
1979-07-06 07:10:32.590 ,1,1,0.,24.0,0.,24.0,0.,24.0,0.,24.0
1979-07-06 07:10:56.590 ,1,0,0.,24.0,0.,24.0,0.,24.0,0.,24.0
1979-07-06 07:11:20.590 ,0,1,0.,24.0,0.,24.0,0.,24.0,0.,24.0
1979-07-06 07:11:44.590 ,0,0,0.,24.0,0.,24.0,0.,24.0,0.,24.0
1979-07-06 07:12:08.590 ,0,1,0.,24.0,0.,24.0,0.,24.0,0.,24.0
1979-07-06 07:12:32.590 ,0,0,0.,24.0,0.,24.0,0.,24.0,0.,24.0
1979-07-06 07:12:56.590 ,1,1,0.,24.0,0.,24.0,0.,24.0,0.,24.0
1979-07-06 07:13:20.590 ,1,0,0.,24.0,0.,24.0,0.,24.0,0.,24.0
1979-07-06 07:13:44.590 ,0,0,0.,24.0,0.,24.0,0.,24.0,0.,24.0
1979-07-06 07:14:08.590 ,0,0,,0,,0,,0,,0
1979-07-06 07:14:30.790 ,0,0,,0,,0,,0,,0
1979-07-06 07:14:31.390 ,0,0,,0,,0,,0,,0
1979-07-06 07:14:32.590 ,0,0,,0,,0,,0,,0
1979-07-06 07:14:56.590 ,0,0,,0,,0,,0,,0
1979-07-06 07:14:56.590 ,0,0,0.,24.0,0.,24.0,0.,24.0,0.,24.0
1979-07-06 07:15:20.590 ,4,1,0.,24.0,0.,24.0,0.,24.0,0.,24.0
1979-07-06 07:15:44.590 ,4,0,0.,24.0,0.,24.0,0.,24.0,0.,24.0
1979-07-06 07:16:08.590 ,5,1,0.,24.0,0.,24.0,0.,24.0,0.,24.0
1979-07-06 07:16:32.590 ,5,0,0.,24.0,0.,24.0,0.,24.0,0.,24.0
1979-07-06 07:16:56.590 ,6,1,0.,24.0,0.,24.0,0.,24.0,0.,24.0
1979-07-06 07:17:20.590 ,6,0,0.,24.0,0.,24.0,0.,24.0,0.,24.0
1979-07-06 07:17:44.590 ,7,1,0.,24.0,0.,24.0,0.,24.0,0.,24.0
1979-07-06 07:18:08.590 ,7,0,0.,24.0,0.,24.0,0.,24.0,0.,24.0
1979-07-06 07:18:32.590 ,7,1,0.,24.0,0.,24.0,0.,24.0,0.,24.0
1979-07-06 07:18:56.590 ,7,0,0.,24.0,0.,24.0,0.,24.0,0.,24.0
1979-07-06 07:19:20.590 ,6,1,0.,24.0,0.,24.0,0.,24.0,0.,24.0
1979-07-06 07:19:44.590 ,6,0,0.,24.0,0.,24.0,0.,24.0,0.,24.0
1979-07-06 07:20:08.590 ,5,1,0.,24.0,0.,24.0,0.,24.0,0.,24.0
1979-07-06 07:20:32.590 ,5,0,0.,24.0,0.,24.0,0.,24.0,0.,24.0
1979-07-06 07:20:56.590 ,4,1,0.,24.0,0.,24.0,0.,24.0,0.,24.0
1979-07-06 07:21:20.590 ,4,0,0.,24.0,0.,24.0,0.,24.0,0.,24.0
1979-07-06 07:21:44.590 ,3,1,0.,24.0,0.,24.0,0.,24.0,0.,24.0
1979-07-06 07:22:08.590 ,3,0,0.,24.0,0.,24.0,0.,24.0,0.,24.0
1979-07-06 07:22:32.590 ,2,1,0.,24.0,0.,24.0,0.,24.0,0.,24.0
1979-07-06 07:22:56.590 ,2,0,0.,24.0,0.,24.0,0.,24.0,0.,24.0
1979-07-06 07:23:20.590 ,1,1,0.,24.0,0.,24.0,0.,24.0,0.,24.0
1979-07-06 07:23:44.590 ,1,0,0.,24.0,0.,24.0,0.,24.0,0.,24.0
1979-07-06 07:24:08.590 ,0,1,0.,24.0,0.,24.0,0.,24.0,0.,24.0
1979-07-06 07:24:32.590 ,0,0,0.,24.0,0.,24.0,0.,24.0,0.,24.0
1979-07-06 07:24:56.590 ,0,1,0.,24.0,0.,24.0,0.,24.0,0.,24.0
1979-07-06 07:25:20.590 ,0,0,0.,24.0,0.,24.0,0.,24.0,0.,24.0
1979-07-06 07:25:44.590 ,1,1,0.,24.0,0.,24.0,0.,24.0,0.,24.0
1979-07-06 07:26:08.590 ,1,0,0.,24.0,0.,24.0,0.,24.0,0.,24.0
1979-07-06 07:26:32.590 ,2,1,0.,24.0,0.,24.0,0.,24.0,0.,24.0
1979-07-06 07:26:56.590 ,2,0,0.,24.0,0.,24.0,0.,24.0,0.,24.0
1979-07-06 07:27:20.590 ,3,1,0.,24.0,0.,24.0,0.,24.0,0.,24.0
1979-07-06 07:27:44.590 ,3,0,0.,24.0,0.,24.0,0.,24.0,0.,24.0
1979-07-06 07:28:08.590 ,4,1,0.,24.0,0.,24.0,0.,24.0,0.,24.0
1979-07-06 07:28:32.590 ,4,0,0.,24.0,0.,24.0,0.,24.0,0.,24.0
1979-07-06 07:28:56.590 ,5,1,0.,24.0,0.,24.0,0.,24.0,0.,24.0
1979-07-06 07:29:20.590 ,5,0,0.,24.0,0.,24.0,0.,24.0,0.,24.0
1979-07-06 07:29:44.590 ,6,1,0.,24.0,0.,24.0,0.,24.0,0.,24.0
1979-07-06 07:30:08.590 ,6,0,0.,24.0,0.,24.0,0.,24.0,0.,24.0
1979-07-06 07:30:32.590 ,7,0,0.,24.0,0.,24.0,0.,24.0,0.,24.0
1979-07-06 07:30:56.590 ,7,0,,0,,0,,0,,0
1979-07-06 07:31:20.590 ,5,1,0.,24.0,0.,24.0,0.,24.0,0.,24.0
1979-07-06 07:31:44.590 ,1,1,0.,24.0,0.,24.0,0.,24.0,0.,24.0
1979-07-06 07:32:08.590 ,2,1,0.,24.0,0.,24.0,0.,24.0,0.,24.0
1979-07-06 07:32:32.590 ,6,1,0.,24.0,0.,24.0,0.,24.0,0.,24.0
1979-07-06 07:32:56.590 ,5,1,0.,24.0,0.,24.0,0.,24.0,0.,24.0
1979-07-06 07:33:20.590 ,1,1,0.,24.0,0.,24.0,0.,24.0,0.,24.0
1979-07-06 07:33:44.590 ,2,1,0.,24.0,0.,24.0,0.,24.0,0.,24.0
1979-07-06 07:34:08.590 ,6,1,0.,24.0,0.,24.0,0.,24.0,0.,24.0
1979-07-06 07:34:32.590 ,5,1,0.,24.0,0.,24.0,0.,24.0,0.,24.0
1979-07-06 07:34:56.590 ,1,1,0.,24.0,0.,24.0,0.,24.0,0.,24.0
1979-07-06 07:35:20.590 ,2,1,0.,24.0,0.,24.0,0.,24.0,0.,24.0
1979-07-06 07:35:44.590 ,6,1,0.,24.0,0.,24.0,0.,24.0,0.,24.0
1979-07-06 07:36:08.590 ,5,1,0.,24.0,0.,24.0,0.,24.0,0.,24.0
1979-07-06 07:36:32.590 ,1,1,0.,24.0,0.,24.0,0.,24.0,0.,24.0
1979-07-06 07:36:56.590 ,2,1,0.,24.0,0.,24.0,0.,24.0,0.,24.0
1979-07-06 07:37:20.590 ,6,1,0.,24.0,0.,24.0,0.,24.0,0.,24.0
1979-07-06 07:37:44.590 ,5,1,0.,24.0,0.,24.0,0.,24.0,0.,24.0
1979-07-06 07:38:08.590 ,1,1,0.,24.0,0.,24.0,0.,24.0,0.,24.0
1979-07-06 07:38:32.590 ,2,1,0.,24.0,0.,24.0,0.,24.0,0.,24.0
1979-07-06 07:38:56.590 ,6,1,0.,24.0,0.,24.0,0.,24.0,0.,24.0
1979-07-06 07:39:20.590 ,5,1,0.,24.0,0.,24.0,0.,24.0,0.,24.0
1979-07-06 07:39:44.590 ,1,1,0.,24.0,0.,24.0,0.,24.0,0.,24.0
1979-07-06 07:40:08.590 ,2,1,0.,24.0,0.,24.0,0.,24.0,0.,24.0
1979-07-06 07:40:32.590 ,6,1,0.,24.0,0.,24.0,0.,24.0,0.,24.0
1979-07-06 07:40:56.590 ,5,1,0.,24.0,0.,24.0,0.,24.0,0.,24.0
1979-07-06 07:41:20.590 ,1,1,0.,24.0,0.,24.0,0.,24.0,0.,24.0
1979-07-06 07:41:44.590 ,0,0,0.,24.0,0.,24.0,0.,24.0,0.,24.0
1979-07-06 07:42:08.590 ,0,0,0.,24.0,0.,24.0,0.,24.0,0.,24.0
1979-07-06 07:42:32.590 ,5,1,0.,24.0,0.,24.0,0.,24.0,0.,24.0
1979-07-06 07:42:56.590 ,5,0,0.,24.0,0.,24.0,0.,24.0,0.,24.0
1979-07-06 07:43:20.590 ,4,1,0.,24.0,0.,24.0,0.,24.0,0.,24.0
1979-07-06 07:43:44.590 ,4,0,0.,24.0,0.,24.0,0.,24.0,0.,24.0
1979-07-06 07:44:08.590 ,3,1,0.,24.0,0.,24.0,0.,24.0,0.,24.0
1979-07-06 07:44:32.590 ,3,0,0.,24.0,0.,24.0,0.,24.0,0.,24.0
1979-07-06 07:44:56.590 ,2,1,0.,24.0,0.,24.0,0.,24.0,0.,24.0
1979-07-06 07:45:20.590 ,2,0,0.,24.0,0.,24.0,0.,24.0,0.,24.0
1979-07-06 07:45:44.590 ,1,1,0.,24.0,0.,24.0,0.,24.0,0.,24.0
1979-07-06 07:46:08.590 ,1,0,0.,24.0,0.,24.0,0.,24.0,0.,24.0
1979-07-06 07:46:32.590 ,0,1,0.,24.0,0.,24.0,0.,24.0,0.,24.0
1979-07-06 07:46:56.590 ,0,0,0.,24.0,0.,24.0,0.,24.0,0.,24.0
1979-07-06 07:47:20.590 ,0,1,0.,24.0,0.,24.0,0.,24.0,0.,24.0
1979-07-06 07:47:44.590 ,0,0,0.,24.0,0.,24.0,0.,24.0,0.,24.0
1979-07-06 07:48:08.590 ,1,1,0.,24.0,0.,24.0,0.,24.0,0.,24.0
1979-07-06 07:48:32.590 ,1,0,0.,24.0,0.,24.0,0.,24.0,0.,24.0
1979-07-06 07:48:56.590 ,2,1,0.,24.0,0.,24.0,0.,24.0,0.,24.0
1979-07-06 07:49:20.590 ,2,0,0.,24.0,0.,24.0,0.,24.0,0.,24.0
1979-07-06 07:49:44.590 ,3,1,0.,24.0,0.,24.0,0.,24.0,0.,24.0
1979-07-06 07:50:08.590 ,3,0,0.,24.0,0.,24.0,0.,24.0,0.,24.0
1979-07-06 07:50:32.590 ,4,1,0.,24.0,0.,24.0,0.,24.0,0.,24.0
1979-07-06 07:50:56.590 ,4,0,0.,24.0,0.,24.0,0.,24.0,0.,24.0
1979-07-06 07:51:20.590 ,5,1,0.,24.0,0.,24.0,0.,24.0,0.,24.0
1979-07-06 07:51:44.590 ,5,0,0.,24.0,0.,24.0,0.,24.0,0.,24.0
1979-07-06 07:52:08.590 ,6,1,0.,24.0,0.,24.0,0.,24.0,0.,24.0
1979-07-06 07:52:32.590 ,6,0,0.,24.0,0.,24.0,0.,24.0,0.,24.0
1979-07-06 07:52:56.590 ,7,1,0.,24.0,0.,24.0,0.,24.0,0.,24.0
1979-07-06 07:53:20.590 ,7,0,0.,24.0,0.,24.0,0.,24.0,0.,24.0
1979-07-06 07:53:44.590 ,7,1,0.,24.0,0.,24.0,0.,24.0,0.,24.0
1979-07-06 07:54:08.590 ,7,0,0.,24.0,0.,24.0,0.,24.0,0.,24.0
1979-07-06 07:54:32.590 ,6,1,0.,24.0,0.,24.0,0.,24.0,0.,24.0
1979-07-06 07:54:56.590 ,6,0,0.,24.0,0.,24.0,0.,24.0,0.,24.0
1979-07-06 07:55:20.590 ,5,1,0.,24.0,0.,24.0,0.,24.0,0.,24.0
1979-07-06 07:55:44.590 ,5,0,0.,24.0,0.,24.0,0.,24.0,0.,24.0
1979-07-06 07:56:08.590 ,4,1,0.,24.0,0.,24.0,0.,24.0,0.,24.0
1979-07-06 07:56:32.590 ,4,0,0.,24.0,0.,24.0,0.,24.0,0.,24.0
1979-07-06 07:56:56.590 ,3,1,0.,24.0,0.,24.0,0.,24.0,0.,24.0
1979-07-06 07:57:20.590 ,3,0,0.,24.0,0.,24.0,0.,24.0,0.,24.0
1979-07-06 07:57:44.590 ,2,1,0.,24.0,0.,24.0,0.,24.0,0.,24.0
1979-07-06 07:58:08.590 ,2,0,0.,24.0,0.,24.0,0.,24.0,0.,24.0
1979-07-06 07:58:32.590 ,1,1,0.,24.0,0.,24.0,0.,24.0,0.,24.0
1979-07-06 07:58:56.590 ,1,0,0.,24.0,0.,24.0,0.,24.0,0.,24.0
1979-07-06 07:59:20.590 ,0,1,0.,24.0,0.,24.0,0.,24.0,0.,24.0
1979-07-06 07:59:44.590 ,0,0,0.,24.0,0.,24.0,0.,24.0,0.,24.0
1979-07-06 08:00:08.590 ,0,1,0.,24.0,0.,24.0,0.,24.0,0.,24.0
1979-07-06 08:00:32.590 ,0,0,0.,24.0,0.,24.0,0.,24.0,0.,24.0
1979-07-06 08:00:56.590 ,1,1,0.,24.0,0.,24.0,0.,24.0,0.,24.0
1979-07-06 08:01:20.590 ,1,0,0.,24.0,0.,24.0,0.,24.0,0.,24.0
1979-07-06 08:01:44.590 ,2,1,0.,24.0,0.,24.0,0.,24.0,0.,24.0
1979-07-06 08:02:08.590 ,2,0,0.,24.0,0.,24.0,0.,24.0,0.,24.0
1979-07-06 08:02:32.590 ,3,1,0.,24.0,0.,24.0,0.,24.0,0.,24.0
1979-07-06 08:02:56.590 ,3,0,0.,24.0,0.,24.0,0.,24.0,0.,24.0
1979-07-06 08:03:20.590 ,4,1,0.,24.0,0.,24.0,0.,24.0,0.,24.0
1979-07-06 08:03:44.590 ,4,0,0.,24.0,0.,24.0,0.,24.0,0.,24.0
1979-07-06 08:04:08.590 ,5,1,0.,24.0,0.,24.0,0.,24.0,0.,24.0
1979-07-06 08:04:32.590 ,5,0,0.,24.0,0.,24.0,0.,24.0,0.,24.0
1979-07-06 08:04:56.590 ,6,1,0.,24.0,0.,24.0,0.,24.0,0.,24.0
1979-07-06 08:05:20.590 ,6,0,0.,24.0,0.,24.0,0.,24.0,0.,24.0
1979-07-06 08:05:44.590 ,7,1,0.,24.0,0.,24.0,0.,24.0,0.,24.0
1979-07-06 08:06:08.590 ,7,0,0.,24.0,0.,24.0,0.,24.0,0.,24.0
1979-07-06 08:06:32.590 ,7,1,0.,24.0,0.,24.0,0.,24.0,0.,24.0
1979-07-06 08:06:56.590 ,7,0,0.,24.0,0.,24.0,0.,24.0,0.,24.0
1979-07-06 08:07:20.590 ,6,1,0.,24.0,0.,24.0,0.,24.0,0.,24.0
1979-07-06 08:07:44.590 ,6,0,0.,24.0,0.,24.0,0.,24.0,0.,24.0
1979-07-06 08:08:08.590 ,5,1,0.,24.0,0.,24.0,0.,24.0,0.,24.0
1979-07-06 08:08:32.590 ,5,0,0.,24.0,0.,24.0,0.,24.0,0.,24.0
1979-07-06 08:08:56.590 ,4,1,0.,24.0,0.,24.0,0.,24.0,0.,24.0
1979-07-06 08:09:20.590 ,4,0,0.,24.0,0.,24.0,0.,24.0,0.,24.0
1979-07-06 08:09:44.590 ,3,1,0.,24.0,0.,24.0,0.,24.0,0.,24.0
1979-07-06 08:10:08.590 ,3,0,0.,24.0,0.,24.0,0.,24.0,0.,24.0
1979-07-06 08:10:32.590 ,2,1,0.,24.0,0.,24.0,0.,24.0,0.,24.0
1979-07-06 08:10:56.590 ,2,0,0.,24.0,0.,24.0,0.,24.0,0.,24.0
1979-07-06 08:11:20.590 ,1,1,0.,24.0,0.,24.0,0.,24.0,0.,24.0
1979-07-06 08:11:44.590 ,1,0,0.,24.0,0.,24.0,0.,24.0,0.,24.0
1979-07-06 08:12:08.590 ,0,1,0.,24.0,0.,24.0,0.,24.0,0.,24.0
1979-07-06 08:12:32.590 ,0,0,0.,24.0,0.,24.0,0.,24.0,0.,24.0
1979-07-06 08:12:56.590 ,0,1,0.,24.0,0.,24.0,0.,24.0,0.,24.0
1979-07-06 08:13:20.590 ,0,0,0.,24.0,0.,24.0,0.,24.0,0.,24.0
1979-07-06 08:13:44.590 ,1,1,0.,24.0,0.,24.0,0.,24.0,0.,24.0
1979-07-06 08:14:08.590 ,1,0,0.,24.0,0.,24.0,0.,24.0,0.,24.0
1979-07-06 08:14:32.590 ,2,1,0.,24.0,0.,24.0,0.,24.0,0.,24.0
1979-07-06 08:14:56.590 ,2,0,0.,24.0,0.,24.0,0.,24.0,0.,24.0
1979-07-06 08:15:20.590 ,3,1,0.,24.0,0.,24.0,0.,24.0,0.,24.0
1979-07-06 08:15:44.590 ,3,0,0.,24.0,0.,24.0,0.,24.0,0.,24.0
1979-07-06 08:16:08.590 ,4,1,0.,24.0,0.,24.0,0.,24.0,0.,24.0
1979-07-06 08:16:32.590 ,4,0,0.,24.0,0.,24.0,0.,24.0,0.,24.0
1979-07-06 08:16:56.590 ,5,1,0.,24.0,0.,24.0,0.,24.0,0.,24.0
1979-07-06 08:17:20.590 ,5,0,0.,24.0,0.,24.0,0.,24.0,0.,24.0
1979-07-06 08:17:44.590 ,6,1,0.,24.0,0.,24.0,0.,24.0,0.,24.0
1979-07-06 08:18:08.590 ,6,0,0.,24.0,0.,24.0,0.,24.0,0.,24.0
1979-07-06 08:18:32.590 ,7,0,0.,24.0,0.,24.0,0.,24.0,0.,24.0
1979-07-06 08:18:56.590 ,7,0,0.,24.0,0.,24.0,0.,24.0,0.,24.0
1979-07-06 08:19:20.590 ,5,1,0.,24.0,0.,24.0,0.,24.0,0.,24.0
1979-07-06 08:19:44.590 ,1,1,0.,24.0,0.,24.0,0.,24.0,0.,24.0
1979-07-06 08:20:08.590 ,2,1,0.,24.0,0.,24.0,0.,24.0,0.,24.0
1979-07-06 08:20:32.590 ,6,1,0.,24.0,0.,24.0,0.,24.0,0.,24.0
1979-07-06 08:20:56.590 ,5,1,0.,24.0,0.,24.0,0.,24.0,0.,24.0
1979-07-06 08:21:20.590 ,1,1,0.,24.0,0.,24.0,0.,24.0,0.,24.0
1979-07-06 08:21:44.590 ,2,1,0.,24.0,0.,24.0,0.,24.0,0.,24.0
1979-07-06 08:22:08.590 ,6,1,0.,24.0,0.,24.0,0.,24.0,0.,24.0
1979-07-06 08:22:32.590 ,5,1,0.,24.0,0.,24.0,0.,24.0,0.,24.0
1979-07-06 08:22:56.590 ,1,1,0.,24.0,0.,24.0,0.,24.0,0.,24.0
1979-07-06 08:23:20.590 ,2,1,0.,24.0,0.,24.0,0.,24.0,0.,24.0
1979-07-06 08:23:44.590 ,6,1,0.,24.0,0.,24.0,0.,24.0,0.,24.0
1979-07-06 08:24:08.590 ,5,1,0.,24.0,0.,24.0,0.,24.0,0.,24.0
1979-07-06 08:24:32.590 ,1,1,0.,24.0,0.,24.0,0.,24.0,0.,24.0
1979-07-06 08:24:56.590 ,2,1,0.,24.0,0.,24.0,0.,24.0,0.,24.0
1979-07-06 08:25:20.590 ,6,1,0.,24.0,0.,24.0,0.,24.0,0.,24.0
1979-07-06 08:25:44.590 ,5,1,0.,24.0,0.,24.0,0.,24.0,0.,24.0
1979-07-06 08:26:08.590 ,1,1,0.,24.0,0.,24.0,0.,24.0,0.,24.0
1979-07-06 08:26:32.590 ,2,1,0.,24.0,0.,24.0,0.,24.0,0.,24.0
1979-07-06 08:26:56.590 ,6,1,0.,24.0,0.,24.0,0.,24.0,0.,24.0
1979-07-06 08:27:20.590 ,5,1,0.,24.0,0.,24.0,0.,24.0,0.,24.0
1979-07-06 08:27:44.590 ,1,1,0.,24.0,0.,24.0,0.,24.0,0.,24.0
1979-07-06 08:28:08.590 ,2,1,0.,24.0,0.,24.0,0.,24.0,0.,24.0
1979-07-06 08:28:32.590 ,6,1,0.,24.0,0.,24.0,0.,24.0,0.,24.0
1979-07-06 08:28:56.590 ,5,1,0.,24.0,0.,24.0,0.,24.0,0.,24.0
1979-07-06 08:29:20.590 ,1,1,0.,24.0,0.,24.0,0.,24.0,0.,24.0
1979-07-06 08:29:44.590 ,0,0,0.,24.0,0.,24.0,0.,24.0,0.,24.0
1979-07-06 08:30:08.590 ,0,0,0.,24.0,0.,24.0,0.,24.0,0.,24.0
1979-07-06 08:30:32.590 ,5,1,0.,24.0,0.,24.0,0.,24.0,0.,24.0
1979-07-06 08:30:56.590 ,5,0,0.,24.0,0.,24.0,0.,24.0,0.,24.0
1979-07-06 08:31:20.590 ,4,1,0.,24.0,0.,24.0,0.,24.0,0.,24.0
1979-07-06 08:31:44.590 ,4,0,0.,24.0,0.,24.0,0.,24.0,0.,24.0
1979-07-06 08:32:08.590 ,3,1,0.,24.0,0.,24.0,0.,24.0,0.,24.0
1979-07-06 08:32:32.590 ,3,0,0.,24.0,0.,24.0,0.,24.0,0.,24.0
1979-07-06 08:32:56.590 ,2,1,0.,24.0,0.,24.0,0.,24.0,0.,24.0
1979-07-06 08:33:20.590 ,2,0,0.,24.0,0.,24.0,0.,24.0,0.,24.0
1979-07-06 08:33:44.590 ,1,1,0.,24.0,0.,24.0,0.,24.0,0.,24.0
1979-07-06 08:34:08.580 ,1,0,0.,24.0,0.,24.0,0.,24.0,0.,24.0